[[{"header":{"parameterUnit":"m.s-1","parameterCategory":2,"la1":30.2991,"la2":30.254,"lo1":-89.0895,"lo2":-89.0444,"dy":0.0017,"dx":0.0017,"nx":28,"ny":28,"refTime":"2024-04-24T09:00:00:Z","depth":"0","parameterNumber":2,"parameterNumberName":"U-component_of_CURRENTS"},"data":[0,0,0,0,0,0,0,0,0,0,0,0,0,0,0,0,0,0,0,0,0,0,0,0,0,0,0,0,0,0,0,0,0,0,0,0,0,0,0,0,0,0,0,0,0,0,0,0,0,0,0,0,0,0,0,0,0,0,0.2373,0.2373,0,0.2361,0.2361,0.236,0.2334,0.2334,0.2334,0.2333,0.2317,0.2316,0.2316,0,0,0,0,0,0,0,0,0,0,0,0,0,0.2387,0.2387,0.2373,0.2373,0.2373,0.2361,0.2361,0.236,0.2334,0.2334,0.2334,0.2333,0.2317,0.2316,0.2316,0,0,0,0,0,0,0,0,0,0,0,0,0,0.2376,0.2387,0.2373,0.2361,0.236,0.2361,0.2361,0.236,0.2334,0.2334,0.2334,0.2333,0.2317,0.2317,0.2316,0.2324,0,0,0.2315,0.2315,0,0,0,0,0,0,0,0,0.2377,0.2375,0.2362,0.2362,0.236,0.2351,0.236,0.2349,0.2335,0.2341,0.2333,0.2333,0.233,0.2328,0.2324,0.2323,0.2322,0.2315,0.2315,0.2315,0.2315,0,0,0,0,0,0,0,0.2378,0.2376,0.2366,0.2363,0.2361,0.2361,0.2358,0.2357,0.2336,0.2341,0.2339,0.2342,0.2329,0.2324,0.2323,0.2322,0.2315,0.2315,0.2315,0.2315,0.2381,0.2382,0,0,0,0,0,0,0.2384,0.2377,0.2366,0.2366,0.2371,0.2361,0.2358,0.2352,0.2336,0.2334,0.2343,0.2341,0.2324,0.2323,0.2322,0.2369,0.2315,0.2315,0.2315,0.2379,0.2381,0.2383,0,0,0,0,0,0,0.2384,0.2383,0.2367,0.2373,0.2372,0.2361,0.2355,0.2352,0.2351,0.2338,0.2335,0.2345,0.2324,0.2323,0.2337,0.2366,0.2315,0.2315,0.2376,0.2379,0.2382,0.2437,0,0,0,0,0,0,0.2384,0.2383,0.2383,0.2374,0.2372,0.2376,0.2356,0.2353,0.2355,0.2353,0.234,0.2337,0.2324,0.2338,0.2337,0.2365,0.2314,0.2374,0.2378,0.2381,0.2433,0.2441,0.2449,0,0,0,0,0,0.2385,0.2387,0.2383,0.2382,0.2371,0.2376,0.2375,0.2365,0.2356,0.2361,0.2358,0.2338,0.236,0.2339,0.2337,0.2366,0.2372,0.2377,0.2381,0.2429,0.244,0.2448,0,0,0,0,0,0,0.2391,0.2384,0.238,0.2379,0.2382,0.2373,0.2378,0.2371,0.2372,0.2371,0.2354,0.2353,0.2384,0.2369,0.2346,0.2399,0.2366,0.237,0.2404,0.2413,0.2421,0.2436,0.2314,0,0,0,0,0,0.2395,0.2393,0.2391,0.2391,0.2395,0.2388,0.239,0.2385,0.2385,0.2383,0.2377,0.2381,0.2401,0.24,0.2413,0.2429,0.2455,0.2451,0.2459,0.2466,0.248,0.2574,0.2592,0.2397,0.2397,0.2397,0,0,0.2395,0.2394,0.2391,0.2393,0.2393,0.2403,0.2387,0.2395,0.2408,0.2383,0.2399,0.2411,0.2416,0.2446,0.2457,0.2432,0.2531,0.2471,0.2477,0.2487,0.258,0.2599,0.2616,0.24,0.2399,0.2399,0,0,0.2401,0.2398,0.24,0.2409,0.2417,0.2418,0.2424,0.2425,0.243,0.2449,0.245,0.2484,0.2485,0.2509,0.2518,0.2579,0.2579,0.2577,0.2616,0.2707,0.2724,0.2739,0.2776,0.2794,0.2569,0.2569,0.2569,0,0.2404,0.2402,0.2404,0.2415,0.2424,0.2428,0.2439,0.2451,0.2458,0.2478,0.2462,0.2522,0.2523,0.2584,0.2605,0.2598,0.2632,0.2574,0.2718,0.2734,0.2749,0.2783,0.2803,0.2572,0.2572,0.2572,0.2571,0,0.241,0.2415,0.2421,0.2433,0.2449,0.2459,0.248,0.2501,0.2509,0.2525,0.2588,0.2604,0.2642,0.2652,0.2642,0.2746,0.2728,0.2727,0.2693,0.2772,0.2802,0.2822,0.2577,0.2576,0.2575,0.2574,0,0,0.2393,0.2418,0.2419,0.2429,0.2458,0.2468,0.251,0.2548,0.2584,0.2611,0.2668,0.2716,0.2735,0.275,0.2757,0.2826,0.2948,0.2817,0.2821,0.2851,0.3122,0.2926,0.2928,0.2978,0.2982,0.2985,0.3093,0,0.2394,0.241,0.2429,0.2453,0.2463,0.2497,0.2535,0.2579,0.2618,0.2677,0.273,0.2786,0.2769,0.2798,0.2871,0.2941,0.3006,0.2917,0.3043,0.3046,0.2862,0.2947,0.2725,0.2788,0.3112,0.3115,0.3117,0,0.2385,0.2399,0.2416,0.2462,0.2472,0.2492,0.2561,0.2601,0.2696,0.2735,0.2811,0.2851,0.2958,0.2933,0.3098,0.3044,0.3091,0.3134,0.314,0.2954,0.2887,0.2767,0.2811,0.2699,0.3147,0.3145,0.3142,0,0.2354,0.239,0.2401,0.2413,0.2468,0.249,0.2527,0.2612,0.2659,0.2779,0.2837,0.2955,0.3023,0.3128,0.3197,0.3172,0.3369,0.3343,0.3208,0.3193,0.3026,0.2988,0.2973,0.3473,0.3473,0.3473,0.3472,0,0.2335,0.2345,0.2383,0.2386,0.2418,0.2469,0.2524,0.2585,0.2685,0.2763,0.2863,0.2947,0.3084,0.3192,0.3249,0.3276,0.3415,0.3232,0.3222,0.3031,0.2994,0.2902,0.2889,0.3476,0.3476,0.3475,0.3474,0,0.2292,0.2315,0.233,0.238,0.2396,0.2418,0.2499,0.2552,0.2654,0.2765,0.2811,0.2973,0.3099,0.3196,0.3363,0.3313,0.3248,0.3351,0.3078,0.3031,0.2716,0.2715,0.2606,0.2553,0.3204,0.32,0.3197,0,0.2269,0.227,0.2311,0.2321,0.2337,0.2381,0.2422,0.2521,0.2587,0.2775,0.2834,0.2978,0.3063,0.3188,0.3142,0.3169,0.3131,0.2954,0.2848,0.2673,0.267,0.2578,0.2538,0.2661,0.2653,0.2647,0.2642,0,0.223,0.2242,0.2256,0.2277,0.2304,0.2347,0.2412,0.2452,0.2596,0.2686,0.2827,0.2905,0.2968,0.2875,0.2847,0.2834,0.2732,0.282,0.2754,0.2328,0.2122,0.2072,0.2593,0.2588,0.2593,0.2597,0.26,0.2602,0.2201,0.2197,0.2215,0.2229,0.2264,0.2302,0.2311,0.2395,0.2471,0.2564,0.2715,0.2722,0.2633,0.2533,0.2508,0.2217,0.2335,0.2089,0.2132,0.2077,0.1917,0.2264,0.2162,0.2165,0.2167,0.217,0.2172,0,0.2153,0.2155,0.217,0.2179,0.2189,0.2233,0.2297,0.229,0.2332,0.2386,0.2453,0.2273,0.2102,0.2001,0.1712,0.1565,0.1519,0.1506,0.138,0.1407,0.1811,0.1673,0.1318,0.1318,0.1318,0.1318,0.1319,0.1319,0.2128,0.2112,0.2113,0.2096,0.2106,0.209,0.2103,0.2103,0.2102,0.1999,0.1858,0.1823,0.1678,0.1387,0.1135,0.11,0.1053,0.0895,0.1037,0.1344,0.1403,0.1459,0.1325,0.0903,0.0902,0.0501,0.0498,0.0496]},{"header":{"parameterUnit":"m.s-1","parameterCategory":2,"la1":30.2991,"la2":30.254,"lo1":-89.0895,"lo2":-89.0444,"dy":0.0017,"dx":0.0017,"nx":28,"ny":28,"refTime":"2024-04-24T09:00:00:Z","depth":"0","parameterNumber":3,"parameterNumberName":"V-component_of_CURRENTS"},"data":[0,0,0,0,0,0,0,0,0,0,0,0,0,0,0,0,0,0,0,0,0,0,0,0,0,0,0,0,0,0,0,0,0,0,0,0,0,0,0,0,0,0,0,0,0,0,0,0,0,0,0,0,0,0,0,0,0,0,0.0345,0.0345,0,0.034,0.034,0.034,0.0332,0.0332,0.0331,0.0331,0.0319,0.0319,0.0318,0,0,0,0,0,0,0,0,0,0,0,0,0,0.0324,0.0324,0.0345,0.0345,0.0345,0.034,0.034,0.034,0.0332,0.0332,0.0331,0.0331,0.0319,0.0319,0.0318,0,0,0,0,0,0,0,0,0,0,0,0,0,0.0327,0.0325,0.0345,0.0341,0.034,0.034,0.034,0.034,0.0332,0.0332,0.0331,0.0331,0.0319,0.0319,0.0318,0.0318,0,0,0.0317,0.0317,0,0,0,0,0,0,0,0,0.0327,0.0327,0.0341,0.0341,0.0341,0.0337,0.0328,0.0333,0.0332,0.0334,0.0331,0.0331,0.0325,0.0324,0.0322,0.0318,0.0317,0.0317,0.0317,0.0317,0.0317,0,0,0,0,0,0,0,0.0326,0.0327,0.0342,0.0341,0.0341,0.0332,0.0332,0.0329,0.0329,0.0334,0.0333,0.0334,0.0325,0.0323,0.0322,0.0317,0.0317,0.0317,0.0317,0.0316,0.0329,0.033,0,0,0,0,0,0,0.033,0.0327,0.0342,0.0342,0.0334,0.0332,0.0333,0.0338,0.0329,0.0328,0.0335,0.0334,0.0323,0.0322,0.0321,0.0345,0.0317,0.0316,0.0316,0.0329,0.0329,0.033,0,0,0,0,0,0,0.033,0.0332,0.0342,0.0335,0.0336,0.0333,0.0338,0.0338,0.0337,0.033,0.0329,0.0336,0.0323,0.0322,0.0327,0.0344,0.0316,0.0316,0.0328,0.0329,0.033,0.0377,0,0,0,0,0,0,0.0329,0.0332,0.0336,0.0335,0.0336,0.0347,0.0339,0.0338,0.0339,0.0338,0.0331,0.0329,0.0323,0.0328,0.0327,0.0343,0.0316,0.0327,0.0328,0.0329,0.0374,0.0379,0.0383,0,0,0,0,0,0.0329,0.0338,0.0336,0.0338,0.0343,0.0348,0.0347,0.0344,0.0339,0.0342,0.034,0.033,0.0334,0.0328,0.0327,0.0343,0.0327,0.0328,0.0329,0.0372,0.0378,0.0383,0,0,0,0,0,0,0.0331,0.0338,0.0336,0.0347,0.0348,0.0347,0.0351,0.0346,0.0346,0.0347,0.0337,0.0336,0.0347,0.0336,0.033,0.0349,0.0328,0.033,0.0362,0.0367,0.0371,0.0394,0.0315,0,0,0,0,0,0.0334,0.0344,0.0345,0.0354,0.0356,0.0353,0.0354,0.0353,0.0353,0.0353,0.0349,0.0347,0.0351,0.0352,0.0351,0.036,0.0368,0.0369,0.0373,0.0377,0.0395,0.0422,0.0431,0.0334,0.0334,0.0334,0,0,0.0336,0.0342,0.0347,0.0355,0.0356,0.037,0.0353,0.036,0.0375,0.0352,0.037,0.0362,0.0356,0.037,0.0374,0.0364,0.0407,0.0379,0.0382,0.0398,0.0425,0.0434,0.0443,0.0335,0.0335,0.0335,0,0,0.0353,0.0353,0.0369,0.0374,0.038,0.0382,0.0386,0.0387,0.0391,0.0403,0.0395,0.0401,0.0399,0.0406,0.0408,0.0435,0.0429,0.0426,0.0468,0.0495,0.0503,0.0511,0.0527,0.0536,0.0428,0.0429,0.0429,0,0.0355,0.0378,0.0373,0.039,0.0402,0.0391,0.0413,0.0416,0.042,0.0433,0.0416,0.0435,0.0422,0.0455,0.0461,0.0447,0.0456,0.0449,0.0502,0.051,0.0517,0.0532,0.0541,0.0431,0.0431,0.043,0.043,0,0.0386,0.0403,0.0413,0.0436,0.0445,0.0462,0.0468,0.0479,0.048,0.0486,0.0513,0.0501,0.0518,0.0507,0.0491,0.0535,0.0523,0.0505,0.0492,0.053,0.0543,0.0552,0.0434,0.0434,0.0433,0.0432,0,0,0.0399,0.0429,0.0435,0.0458,0.0474,0.049,0.0516,0.0544,0.0577,0.0571,0.0617,0.061,0.0606,0.0607,0.0589,0.0603,0.0649,0.0577,0.0577,0.06,0.0706,0.0663,0.0668,0.064,0.0642,0.0644,0.0693,0,0.0427,0.0473,0.048,0.0529,0.0555,0.056,0.0592,0.0614,0.0629,0.0668,0.0662,0.0694,0.0643,0.0658,0.0665,0.0663,0.0675,0.0637,0.0661,0.0662,0.0625,0.0678,0.0686,0.0728,0.0701,0.0703,0.0704,0,0.0461,0.049,0.054,0.0592,0.0605,0.0631,0.069,0.0718,0.0759,0.0771,0.0796,0.0793,0.0823,0.0769,0.0792,0.0771,0.0745,0.073,0.0731,0.0686,0.0636,0.0686,0.0745,0.0716,0.0717,0.0716,0.0715,0,0.0487,0.0536,0.0583,0.0598,0.0648,0.0678,0.071,0.0753,0.0798,0.0847,0.0892,0.0905,0.0943,0.0915,0.0878,0.0844,0.0899,0.0848,0.0785,0.0781,0.0791,0.0784,0.0833,0.0864,0.0864,0.0864,0.0864,0,0.0522,0.0559,0.06,0.0627,0.0693,0.0716,0.0793,0.0821,0.0886,0.097,0.0954,0.1034,0.0985,0.1003,0.0934,0.0901,0.0947,0.0814,0.0801,0.0804,0.0798,0.0774,0.0756,0.0866,0.0865,0.0865,0.0865,0,0.0546,0.0569,0.0627,0.0685,0.0707,0.0758,0.0843,0.0906,0.0956,0.107,0.1097,0.1157,0.119,0.1122,0.1099,0.0995,0.0935,0.0916,0.0915,0.0899,0.0777,0.076,0.0803,0.081,0.0854,0.0854,0.0853,0,0.0563,0.0595,0.0667,0.0707,0.0735,0.0809,0.0871,0.0933,0.1012,0.1162,0.1235,0.13,0.1373,0.1307,0.115,0.1029,0.0975,0.0916,0.0839,0.0794,0.0768,0.0755,0.0757,0.0873,0.0873,0.0873,0.0873,0,0.0597,0.062,0.0668,0.0748,0.0815,0.0899,0.0994,0.1066,0.1177,0.1296,0.147,0.1543,0.1489,0.1394,0.119,0.1084,0.0909,0.0903,0.0879,0.0812,0.0785,0.0777,0.0806,0.087,0.0871,0.0871,0.0871,0.0871,0.062,0.0657,0.0719,0.0796,0.0877,0.0987,0.107,0.1201,0.1358,0.1558,0.1627,0.1739,0.1574,0.1317,0.1184,0.0905,0.0915,0.08,0.0793,0.0791,0.0776,0.0785,0.081,0.081,0.081,0.081,0.081,0,0.0647,0.0691,0.0765,0.0862,0.0953,0.0995,0.1155,0.1265,0.1473,0.1647,0.181,0.1747,0.1572,0.1327,0.0973,0.0822,0.078,0.0745,0.0751,0.0765,0.0801,0.0777,0.077,0.077,0.077,0.077,0.077,0.077,0.0663,0.0727,0.0765,0.0905,0.0981,0.1118,0.1216,0.1406,0.1548,0.1748,0.1783,0.18,0.1597,0.114,0.085,0.0781,0.0739,0.0693,0.0687,0.0715,0.072,0.0725,0.0699,0.0676,0.0676,0.0672,0.0672,0.0672]}],[{"header":{"parameterUnit":"m.s-1","parameterCategory":2,"la1":30.2991,"la2":30.254,"lo1":-89.0895,"lo2":-89.0444,"dy":0.0017,"dx":0.0017,"nx":28,"ny":28,"refTime":"2024-04-24T09:00:00:Z","depth":"2","parameterNumber":2,"parameterNumberName":"U-component_of_CURRENTS"},"data":[0,0,0,0,0,0,0,0,0,0,0,0,0,0,0,0,0,0,0,0,0,0,0,0,0,0,0,0,0,0,0,0,0,0,0,0,0,0,0,0,0,0,0,0,0,0,0,0,0,0,0,0,0,0,0,0,0,0,0.1996,0.1996,0,0.1982,0.1981,0.1981,0.1966,0.1967,0.1967,0.1967,0.1974,0.1974,0.1974,0,0,0,0,0,0,0,0,0,0,0,0,0,0.2018,0.2017,0.1996,0.1996,0.1996,0.1982,0.1981,0.1981,0.1966,0.1967,0.1967,0.1967,0.1974,0.1974,0.1974,0,0,0,0,0,0,0,0,0,0,0,0,0,0.2004,0.2017,0.1996,0.1989,0.1989,0.1982,0.1981,0.1981,0.1966,0.1967,0.1967,0.1967,0.1974,0.1974,0.1974,0.1973,0,0,0.1975,0.1975,0,0,0,0,0,0,0,0,0.2004,0.2002,0.199,0.199,0.1989,0.1979,0.1992,0.198,0.1966,0.1972,0.1967,0.1967,0.1979,0.1979,0.1971,0.1973,0.1973,0.1975,0.1975,0.1975,0.1975,0,0,0,0,0,0,0,0.2005,0.2003,0.1987,0.1991,0.199,0.199,0.1987,0.1989,0.1973,0.1971,0.1971,0.1974,0.1979,0.1971,0.1972,0.1973,0.1975,0.1975,0.1975,0.1975,0.2034,0.2035,0,0,0,0,0,0,0.2012,0.2004,0.1988,0.1987,0.2001,0.1989,0.1987,0.1979,0.1973,0.1972,0.1974,0.1974,0.1971,0.1971,0.1972,0.2024,0.1975,0.1975,0.1975,0.2032,0.2034,0.2035,0,0,0,0,0,0,0.2013,0.2011,0.1988,0.1998,0.1996,0.1989,0.1981,0.1979,0.1984,0.1975,0.1975,0.1983,0.1971,0.1972,0.1983,0.2022,0.1975,0.1975,0.203,0.2033,0.2035,0.2093,0,0,0,0,0,0,0.2013,0.201,0.2013,0.1998,0.1996,0.1993,0.1981,0.1979,0.1987,0.1986,0.1982,0.1982,0.1971,0.1983,0.1983,0.2021,0.1975,0.2029,0.2031,0.2034,0.2089,0.2097,0.2103,0,0,0,0,0,0.2014,0.2015,0.2013,0.2012,0.1997,0.1994,0.1992,0.1986,0.1987,0.1991,0.1989,0.1983,0.2001,0.1983,0.1984,0.2023,0.2027,0.2031,0.2034,0.2086,0.2095,0.2103,0,0,0,0,0,0,0.2025,0.2013,0.2011,0.2008,0.2007,0.1993,0.1999,0.1996,0.1996,0.2001,0.199,0.199,0.2022,0.201,0.1991,0.2049,0.2018,0.2022,0.2058,0.2067,0.2074,0.207,0.1975,0,0,0,0,0,0.203,0.2026,0.2019,0.2018,0.2021,0.2013,0.2015,0.2012,0.2009,0.2009,0.2007,0.2014,0.2034,0.2039,0.2048,0.2068,0.2081,0.2097,0.2105,0.2111,0.2109,0.2148,0.2159,0.2046,0.2046,0.2046,0,0,0.2033,0.2029,0.2026,0.2021,0.202,0.2025,0.2014,0.2021,0.2031,0.2012,0.2028,0.204,0.2046,0.2075,0.2089,0.207,0.2158,0.2115,0.212,0.2115,0.2153,0.2164,0.2173,0.2048,0.2048,0.2048,0,0,0.2038,0.2037,0.2037,0.2041,0.2047,0.2044,0.2051,0.2048,0.2054,0.207,0.2071,0.21,0.2112,0.2128,0.2138,0.2189,0.2198,0.2202,0.223,0.2268,0.2278,0.2286,0.2353,0.2367,0.22,0.2201,0.2201,0,0.2047,0.204,0.2038,0.2045,0.2051,0.2056,0.2062,0.2072,0.2074,0.2086,0.2085,0.2136,0.2141,0.2189,0.2207,0.2207,0.2235,0.2196,0.2278,0.2286,0.2293,0.236,0.2374,0.2204,0.2203,0.2203,0.2203,0,0.2048,0.2052,0.2057,0.2064,0.2071,0.208,0.2093,0.211,0.2124,0.2135,0.2188,0.2202,0.2232,0.2251,0.2242,0.2306,0.2315,0.2287,0.2255,0.2308,0.2375,0.2389,0.2208,0.2207,0.2206,0.2205,0,0,0.2039,0.2054,0.2056,0.2062,0.2082,0.2084,0.2117,0.2139,0.2171,0.2197,0.2242,0.2284,0.2303,0.2315,0.2327,0.2357,0.2447,0.2344,0.2344,0.2409,0.2562,0.2401,0.2401,0.2431,0.2433,0.2435,0.26,0,0.2041,0.2049,0.2059,0.2075,0.2079,0.2103,0.2132,0.2161,0.2197,0.2245,0.2287,0.234,0.2327,0.2362,0.2391,0.2433,0.2481,0.2407,0.25,0.2504,0.2352,0.2409,0.217,0.228,0.2614,0.2616,0.2618,0,0.2033,0.204,0.205,0.2075,0.2082,0.2102,0.215,0.2179,0.2251,0.2289,0.2351,0.2387,0.2462,0.2436,0.2544,0.2499,0.2536,0.2563,0.2569,0.24,0.2366,0.2274,0.2293,0.2641,0.2639,0.2637,0.2636,0,0.2007,0.2031,0.2036,0.2046,0.2081,0.2102,0.2129,0.2192,0.2232,0.233,0.2381,0.2464,0.2526,0.2578,0.2616,0.2602,0.2718,0.2708,0.261,0.2603,0.2403,0.2371,0.2783,0.2783,0.2783,0.2782,0.2782,0,0.1992,0.1997,0.203,0.2033,0.2055,0.2091,0.2136,0.2184,0.2273,0.2323,0.2406,0.2465,0.256,0.2622,0.2654,0.2661,0.2756,0.2626,0.2624,0.2418,0.2387,0.2686,0.2672,0.2789,0.2787,0.2786,0.2785,0,0.1957,0.1977,0.1985,0.2026,0.204,0.2058,0.2127,0.2168,0.2263,0.234,0.2379,0.2501,0.2585,0.2652,0.2751,0.27,0.2729,0.2705,0.2463,0.2425,0.26,0.2589,0.2658,0.2653,0.2649,0.2646,0.2643,0,0.1937,0.1938,0.1969,0.1977,0.1997,0.2033,0.2062,0.2152,0.2205,0.2338,0.2377,0.2493,0.2526,0.2606,0.2556,0.2584,0.2679,0.236,0.2261,0.2591,0.2584,0.2578,0.2571,0.207,0.2063,0.2057,0.2052,0,0.1901,0.1917,0.1925,0.1938,0.1962,0.1981,0.2037,0.2069,0.2176,0.2248,0.2318,0.2353,0.24,0.2287,0.2287,0.2263,0.2328,0.2237,0.2664,0.2095,0.2037,0.2029,0.2043,0.2,0.2005,0.2009,0.2012,0.2014,0.1878,0.1872,0.1885,0.1888,0.1915,0.1919,0.1909,0.1965,0.2012,0.2056,0.2155,0.2119,0.2118,0.1984,0.1905,0.1836,0.2025,0.1929,0.1948,0.1974,0.1832,0.1764,0.1655,0.1658,0.1661,0.1663,0.1665,0,0.1832,0.183,0.1834,0.1829,0.1824,0.1863,0.1883,0.1846,0.1842,0.1869,0.1878,0.1678,0.1575,0.1599,0.1395,0.1354,0.1357,0.1302,0.1305,0.1356,0.1402,0.1233,0.0897,0.0895,0.0893,0.0891,0,0,0.181,0.1783,0.1772,0.173,0.1738,0.1685,0.1671,0.1624,0.1609,0.1519,0.1459,0.1516,0.1549,0.1228,0.1154,0.1001,0.1181,0.0943,0.1557,0.1615,0.1659,0.1754,0.1547,0,0,0,0,0]},{"header":{"parameterUnit":"m.s-1","parameterCategory":2,"la1":30.2991,"la2":30.254,"lo1":-89.0895,"lo2":-89.0444,"dy":0.0017,"dx":0.0017,"nx":28,"ny":28,"refTime":"2024-04-24T09:00:00:Z","depth":"2","parameterNumber":3,"parameterNumberName":"V-component_of_CURRENTS"},"data":[0,0,0,0,0,0,0,0,0,0,0,0,0,0,0,0,0,0,0,0,0,0,0,0,0,0,0,0,0,0,0,0,0,0,0,0,0,0,0,0,0,0,0,0,0,0,0,0,0,0,0,0,0,0,0,0,0,0,0.0162,0.0162,0,0.0154,0.0154,0.0154,0.015,0.015,0.015,0.015,0.0142,0.0142,0.0141,0,0,0,0,0,0,0,0,0,0,0,0,0,0.015,0.0151,0.0162,0.0162,0.0162,0.0154,0.0154,0.0154,0.015,0.015,0.015,0.015,0.0142,0.0142,0.0141,0,0,0,0,0,0,0,0,0,0,0,0,0,0.015,0.0151,0.0162,0.0159,0.0159,0.0154,0.0154,0.0154,0.015,0.015,0.015,0.015,0.0142,0.0142,0.0141,0.0137,0,0,0.014,0.014,0,0,0,0,0,0,0,0,0.015,0.015,0.016,0.0159,0.0159,0.0154,0.0147,0.0149,0.015,0.0153,0.015,0.015,0.0146,0.0146,0.0143,0.0137,0.0137,0.014,0.014,0.014,0.014,0,0,0,0,0,0,0,0.015,0.015,0.0158,0.016,0.0159,0.0151,0.0151,0.0147,0.0149,0.0152,0.0152,0.0152,0.0146,0.0143,0.0143,0.0137,0.014,0.014,0.014,0.0139,0.0144,0.0145,0,0,0,0,0,0,0.0153,0.0151,0.0158,0.0158,0.0155,0.0151,0.0151,0.0155,0.0149,0.0148,0.0152,0.0152,0.0144,0.0143,0.0142,0.0162,0.014,0.0139,0.0139,0.0144,0.0144,0.0145,0,0,0,0,0,0,0.0153,0.0154,0.0159,0.0154,0.0154,0.0152,0.0155,0.0155,0.0155,0.0149,0.0148,0.0154,0.0144,0.0143,0.0146,0.016,0.0139,0.0139,0.0143,0.0144,0.0145,0.0184,0,0,0,0,0,0,0.0153,0.0154,0.0158,0.0155,0.0155,0.0161,0.0155,0.0154,0.0156,0.0155,0.015,0.0149,0.0144,0.0146,0.0145,0.0159,0.0139,0.0143,0.0144,0.0144,0.0183,0.0186,0.0189,0,0,0,0,0,0.0153,0.0159,0.0158,0.0159,0.016,0.0161,0.016,0.0158,0.0156,0.0158,0.0156,0.015,0.015,0.0146,0.0145,0.0159,0.0143,0.0144,0.0144,0.0181,0.0186,0.0189,0,0,0,0,0,0,0.0156,0.0159,0.0158,0.0165,0.0165,0.0161,0.0164,0.016,0.016,0.0162,0.0153,0.0153,0.0161,0.0152,0.0148,0.0162,0.0146,0.0146,0.0174,0.0178,0.0181,0.0194,0.0138,0,0,0,0,0,0.0158,0.0165,0.0164,0.017,0.0171,0.0167,0.0167,0.0167,0.0166,0.0166,0.0162,0.016,0.0162,0.0164,0.0161,0.0168,0.0164,0.0176,0.0179,0.0182,0.0191,0.0186,0.0189,0.0147,0.0147,0.0147,0,0,0.016,0.0164,0.0167,0.0172,0.0171,0.0182,0.0168,0.0173,0.0184,0.0165,0.0179,0.0171,0.0166,0.0176,0.0179,0.0172,0.0194,0.0183,0.0186,0.0193,0.0187,0.0191,0.0195,0.0148,0.0148,0.0148,0,0,0.0173,0.0173,0.0184,0.0188,0.0192,0.0192,0.0195,0.0194,0.0197,0.0206,0.0198,0.02,0.0199,0.0202,0.0202,0.0221,0.0211,0.0218,0.0248,0.0243,0.0246,0.0249,0.0261,0.0265,0.0221,0.0221,0.0221,0,0.0176,0.0193,0.0187,0.02,0.021,0.02,0.0217,0.0219,0.022,0.0228,0.0217,0.0225,0.0215,0.0236,0.0241,0.0231,0.0229,0.0235,0.0248,0.0251,0.0253,0.0264,0.0268,0.0223,0.0223,0.0223,0.0223,0,0.0199,0.0213,0.022,0.0238,0.0244,0.0258,0.0261,0.0269,0.027,0.0272,0.0288,0.0275,0.0283,0.0277,0.0264,0.0281,0.0275,0.0252,0.024,0.026,0.027,0.0273,0.0226,0.0226,0.0225,0.0224,0,0,0.021,0.0233,0.0237,0.0256,0.0268,0.028,0.03,0.0319,0.0343,0.0336,0.0367,0.0357,0.0349,0.0349,0.0333,0.0324,0.0337,0.0297,0.0296,0.0313,0.0338,0.0313,0.0313,0.0312,0.0313,0.0313,0.0343,0,0.0234,0.0269,0.0274,0.0313,0.0333,0.0336,0.036,0.0375,0.0384,0.041,0.0398,0.042,0.0378,0.0389,0.0372,0.0348,0.0345,0.0332,0.0313,0.0313,0.029,0.0316,0.033,0.0355,0.0346,0.0346,0.0347,0,0.0261,0.0283,0.0324,0.0362,0.0372,0.0395,0.0438,0.0458,0.0483,0.0492,0.0503,0.0496,0.0499,0.0454,0.0427,0.042,0.0386,0.0358,0.0358,0.0323,0.0292,0.033,0.036,0.0352,0.0351,0.0351,0.0351,0,0.0283,0.0321,0.0359,0.0371,0.0408,0.0434,0.0457,0.0486,0.0522,0.0553,0.0587,0.0573,0.0594,0.0536,0.0474,0.0456,0.0438,0.0406,0.0356,0.0354,0.0357,0.0355,0.0387,0.0387,0.0387,0.0387,0.0387,0,0.0312,0.0342,0.0376,0.0398,0.0452,0.0467,0.0528,0.0547,0.0597,0.066,0.0637,0.0686,0.0613,0.0592,0.0511,0.0448,0.0468,0.0373,0.036,0.0372,0.037,0.0354,0.0349,0.0388,0.0388,0.0388,0.0387,0,0.0333,0.0352,0.0399,0.0446,0.0465,0.0506,0.0578,0.0627,0.0664,0.075,0.077,0.0789,0.0771,0.0684,0.0611,0.0518,0.0442,0.0412,0.0437,0.0425,0.0358,0.0355,0.0374,0.0373,0.0372,0.0372,0.0371,0,0.0347,0.0374,0.0434,0.0468,0.0494,0.0556,0.0606,0.0657,0.0723,0.0819,0.0873,0.0889,0.0909,0.0788,0.0641,0.0511,0.0473,0.0415,0.0371,0.0371,0.0356,0.0355,0.0353,0.0403,0.0403,0.0403,0.0403,0,0.0374,0.0396,0.0435,0.0505,0.0564,0.0634,0.0715,0.0779,0.0861,0.0947,0.1049,0.1071,0.0976,0.0857,0.0664,0.0562,0.043,0.0408,0.0415,0.0391,0.0397,0.0383,0.0381,0.0402,0.0402,0.0402,0.0402,0.0402,0.0395,0.0426,0.0479,0.0546,0.0616,0.0712,0.0782,0.0886,0.1009,0.1131,0.1146,0.1168,0.1028,0.0788,0.0628,0.0448,0.046,0.0369,0.037,0.0371,0.0356,0.0359,0.0356,0.0356,0.0356,0.0356,0.0355,0,0.042,0.0457,0.0517,0.0602,0.0682,0.0719,0.0856,0.0937,0.1092,0.118,0.1252,0.1095,0.0973,0.08,0.0551,0.0395,0.038,0.0326,0.0348,0.0351,0.0352,0.0336,0.0331,0.033,0.0329,0.0329,0,0,0.0434,0.0487,0.0516,0.0638,0.0707,0.0822,0.0904,0.1036,0.1125,0.121,0.1215,0.1196,0.1011,0.0809,0.062,0.0481,0.0442,0.0441,0.048,0.0533,0.0536,0.0398,0.0378,0,0,0,0,0]}],[{"header":{"parameterUnit":"m.s-1","parameterCategory":2,"la1":30.2991,"la2":30.254,"lo1":-89.0895,"lo2":-89.0444,"dy":0.0017,"dx":0.0017,"nx":28,"ny":28,"refTime":"2024-04-24T09:00:00:Z","depth":"4","parameterNumber":2,"parameterNumberName":"U-component_of_CURRENTS"},"data":[0,0,0,0,0,0,0,0,0,0,0,0,0,0,0,0,0,0,0,0,0,0,0,0,0,0,0,0,0,0,0,0,0,0,0,0,0,0,0,0,0,0,0,0,0,0,0,0,0,0,0,0,0,0,0,0,0,0,0.1189,0.1189,0,0.1195,0.1195,0.1195,0.1218,0.1219,0.122,0.122,0.125,0.125,0.125,0,0,0,0,0,0,0,0,0,0,0,0,0,0.1191,0.1191,0.1189,0.1189,0.1189,0.1195,0.1195,0.1195,0.1218,0.1219,0.122,0.1221,0.1249,0.125,0.125,0,0,0,0,0,0,0,0,0,0,0,0,0,0.1191,0.1191,0.1189,0.1203,0.1204,0.1195,0.1195,0.1195,0.1218,0.1219,0.122,0.1221,0.1249,0.125,0.125,0.123,0,0,0.125,0.125,0,0,0,0,0,0,0,0,0.1191,0.1191,0.1201,0.1202,0.1204,0.1209,0.1207,0.1208,0.1218,0.1211,0.122,0.1221,0.1238,0.124,0.1235,0.1231,0.1233,0.125,0.1251,0.1251,0.1251,0,0,0,0,0,0,0,0.1191,0.1191,0.1189,0.1201,0.1203,0.1207,0.1208,0.1207,0.1218,0.1211,0.1214,0.1217,0.1239,0.1235,0.1236,0.1233,0.125,0.1251,0.1251,0.1251,0.1303,0.1304,0,0,0,0,0,0,0.1193,0.1191,0.1189,0.119,0.1202,0.1206,0.1207,0.1204,0.1217,0.122,0.1216,0.1218,0.1234,0.1236,0.1238,0.1293,0.1251,0.1251,0.1251,0.1302,0.1303,0.1305,0,0,0,0,0,0,0.1193,0.1193,0.1189,0.1192,0.1193,0.1206,0.1202,0.1204,0.1228,0.1221,0.1224,0.1241,0.1235,0.1237,0.1261,0.1291,0.1251,0.1251,0.13,0.1302,0.1304,0.1353,0,0,0,0,0,0,0.1193,0.1192,0.1205,0.1192,0.1193,0.1201,0.1201,0.1203,0.1227,0.1231,0.1243,0.1245,0.1236,0.1261,0.1261,0.1291,0.1251,0.1299,0.1301,0.1303,0.135,0.1356,0.1362,0,0,0,0,0,0.1193,0.12,0.1206,0.1207,0.1205,0.1201,0.1202,0.1213,0.1228,0.1239,0.1252,0.1246,0.1277,0.1262,0.1262,0.1292,0.1297,0.13,0.1303,0.1347,0.1355,0.1362,0,0,0,0,0,0,0.1209,0.1202,0.1209,0.1215,0.1218,0.1207,0.1223,0.1229,0.1246,0.1261,0.1255,0.1258,0.1293,0.1284,0.1268,0.1315,0.1289,0.1292,0.1322,0.133,0.1336,0.1336,0.1251,0,0,0,0,0,0.1217,0.1223,0.1217,0.1226,0.123,0.1233,0.124,0.1247,0.1253,0.1264,0.1272,0.1286,0.1298,0.1309,0.1316,0.1335,0.1336,0.1358,0.1364,0.1369,0.1371,0.1395,0.1404,0.1314,0.1314,0.1314,0,0,0.1227,0.1225,0.123,0.1231,0.1236,0.1242,0.124,0.1258,0.1271,0.1263,0.1297,0.1309,0.1309,0.1336,0.1351,0.1336,0.1398,0.1373,0.1377,0.1376,0.1399,0.1408,0.1416,0.1316,0.1316,0.1315,0,0,0.1237,0.1248,0.1254,0.1258,0.1271,0.127,0.1282,0.1288,0.1305,0.1329,0.1334,0.1365,0.1379,0.1387,0.1391,0.1434,0.1431,0.1445,0.1474,0.1499,0.1506,0.1513,0.1536,0.1544,0.1446,0.1446,0.1446,0,0.1255,0.1253,0.1257,0.1263,0.1271,0.1286,0.1295,0.1308,0.1325,0.134,0.1351,0.1395,0.1402,0.143,0.145,0.1448,0.1461,0.1445,0.1507,0.1513,0.1519,0.154,0.1549,0.1449,0.1449,0.1448,0.1448,0,0.1254,0.1268,0.1274,0.1284,0.1295,0.1308,0.1321,0.1347,0.1374,0.1385,0.1434,0.1449,0.1475,0.1488,0.1483,0.1531,0.1528,0.1513,0.1486,0.1531,0.1551,0.1559,0.1453,0.1452,0.1451,0.1451,0,0,0.1253,0.127,0.1276,0.1284,0.1309,0.1312,0.1346,0.1369,0.1393,0.1434,0.147,0.1508,0.1531,0.1538,0.1547,0.157,0.163,0.1565,0.1566,0.1585,0.1692,0.1558,0.1553,0.1629,0.1631,0.1632,0.1693,0,0.1255,0.1266,0.1277,0.1298,0.1303,0.1331,0.1354,0.1384,0.1418,0.1459,0.1499,0.1541,0.1545,0.1575,0.1601,0.162,0.1651,0.1615,0.1647,0.1648,0.1521,0.1557,0.1636,0.1698,0.17,0.1701,0.1702,0,0.1244,0.1254,0.1274,0.1297,0.1304,0.1326,0.1369,0.1392,0.145,0.1481,0.1537,0.1572,0.1631,0.1627,0.169,0.1669,0.1691,0.1702,0.1704,0.1564,0.1527,0.1643,0.1716,0.1715,0.1714,0.1713,0.1712,0,0.122,0.1248,0.1265,0.1274,0.1306,0.1333,0.136,0.1408,0.1431,0.1512,0.1547,0.1613,0.1663,0.1699,0.1734,0.1724,0.1791,0.1774,0.1676,0.1668,0.1749,0.1742,0.1823,0.1823,0.1823,0.1823,0.1823,0,0.1197,0.1213,0.1263,0.1268,0.1295,0.1328,0.1363,0.1401,0.146,0.1483,0.1567,0.1599,0.1686,0.1733,0.1753,0.1732,0.1811,0.1684,0.1672,0.177,0.1764,0.1756,0.1747,0.1825,0.1825,0.1824,0.1824,0,0.1158,0.1191,0.1213,0.1263,0.1283,0.1306,0.136,0.1372,0.1447,0.1488,0.1524,0.1614,0.1665,0.1728,0.1789,0.174,0.1743,0.1721,0.1832,0.1825,0.1603,0.1596,0.161,0.1605,0.1602,0.1599,0.1596,0,0.1133,0.1144,0.1205,0.1218,0.1246,0.1285,0.1296,0.1362,0.1371,0.1472,0.1477,0.1574,0.1621,0.1606,0.1675,0.17,0.1683,0.1675,0.1625,0.1593,0.158,0.1579,0.1578,0.159,0.159,0.1589,0.1588,0,0.1087,0.1126,0.1145,0.1174,0.1197,0.12,0.123,0.1227,0.1292,0.1384,0.14,0.1434,0.1484,0.1525,0.1559,0.1573,0.1667,0.1636,0.1644,0.1597,0.157,0.1561,0.1563,0.1575,0.1577,0.1578,0.1579,0,0.1062,0.1066,0.11,0.111,0.1132,0.1097,0.1121,0.1123,0.1146,0.1256,0.126,0.1363,0.1463,0.1459,0.1485,0.1488,0.1464,0.1411,0.1429,0.1444,0.1358,0.1296,0.1208,0,0,0,0,0,0.1027,0.1015,0.1023,0.1012,0.1025,0.1036,0.1059,0.1081,0.1153,0.1129,0.1189,0.123,0.1268,0.1322,0.1293,0.1405,0.1466,0.1361,0.1414,0.1505,0.152,0.1431,0,0,0,0,0,0,0.0999,0.1013,0.0998,0.0925,0.0902,0.0891,0.0904,0.095,0.0936,0.1035,0.1067,0.1153,0.1215,0.1285,0.1275,0.1289,0.1292,0.143,0.1426,0.1497,0.151,0.1522,0.1436,0,0,0,0,0]},{"header":{"parameterUnit":"m.s-1","parameterCategory":2,"la1":30.2991,"la2":30.254,"lo1":-89.0895,"lo2":-89.0444,"dy":0.0017,"dx":0.0017,"nx":28,"ny":28,"refTime":"2024-04-24T09:00:00:Z","depth":"4","parameterNumber":3,"parameterNumberName":"V-component_of_CURRENTS"},"data":[0,0,0,0,0,0,0,0,0,0,0,0,0,0,0,0,0,0,0,0,0,0,0,0,0,0,0,0,0,0,0,0,0,0,0,0,0,0,0,0,0,0,0,0,0,0,0,0,0,0,0,0,0,0,0,0,0,0,0.0107,0.0107,0,0.0106,0.0106,0.0106,0.0108,0.0108,0.0108,0.0109,0.0109,0.0109,0.0109,0,0,0,0,0,0,0,0,0,0,0,0,0,0.0097,0.0098,0.0107,0.0107,0.0107,0.0106,0.0106,0.0106,0.0108,0.0108,0.0108,0.0109,0.0109,0.0109,0.0109,0,0,0,0,0,0,0,0,0,0,0,0,0,0.0099,0.0098,0.0107,0.0108,0.0109,0.0106,0.0106,0.0106,0.0108,0.0108,0.0109,0.0109,0.0109,0.0109,0.0109,0.0106,0,0,0.0109,0.0109,0,0,0,0,0,0,0,0,0.0099,0.01,0.0108,0.0108,0.0109,0.0107,0.0102,0.0106,0.0108,0.0108,0.0109,0.0109,0.0109,0.0109,0.0108,0.0106,0.0106,0.0109,0.0109,0.0109,0.0108,0,0,0,0,0,0,0,0.0099,0.01,0.0107,0.0108,0.0108,0.0104,0.0104,0.0103,0.0108,0.0108,0.0109,0.0108,0.0109,0.0108,0.0108,0.0106,0.0109,0.0109,0.0108,0.0108,0.0114,0.0115,0,0,0,0,0,0,0.01,0.01,0.0107,0.0107,0.0104,0.0104,0.0105,0.0108,0.0108,0.0108,0.0108,0.0109,0.0108,0.0108,0.0108,0.0124,0.0109,0.0108,0.0108,0.0114,0.0114,0.0115,0,0,0,0,0,0,0.01,0.0101,0.0107,0.0103,0.0103,0.0104,0.0107,0.0108,0.011,0.0108,0.0108,0.0111,0.0108,0.0108,0.0113,0.0123,0.0108,0.0108,0.0114,0.0114,0.0114,0.0143,0,0,0,0,0,0,0.01,0.0101,0.0104,0.0103,0.0104,0.0109,0.0107,0.0107,0.011,0.011,0.011,0.011,0.0108,0.0113,0.0113,0.0123,0.0108,0.0114,0.0114,0.0114,0.0142,0.0144,0.0146,0,0,0,0,0,0.0099,0.0104,0.0104,0.0105,0.0108,0.011,0.011,0.011,0.011,0.0113,0.0114,0.011,0.0116,0.0113,0.0113,0.0123,0.0113,0.0114,0.0114,0.0141,0.0144,0.0146,0,0,0,0,0,0,0.0101,0.0105,0.0105,0.0111,0.0112,0.011,0.0113,0.0112,0.0115,0.0117,0.0114,0.0114,0.0122,0.0116,0.0114,0.0125,0.0114,0.0114,0.0134,0.0136,0.0139,0.0147,0.0108,0,0,0,0,0,0.0103,0.0109,0.0109,0.0114,0.0115,0.0114,0.0115,0.0116,0.0117,0.0119,0.0119,0.012,0.0122,0.0125,0.0124,0.0131,0.012,0.0136,0.0138,0.014,0.0147,0.0137,0.0139,0.0116,0.0116,0.0116,0,0,0.0105,0.0108,0.0111,0.0115,0.0116,0.0124,0.0115,0.012,0.0129,0.0118,0.0132,0.0127,0.0125,0.0134,0.0137,0.0132,0.014,0.0141,0.0143,0.0148,0.0137,0.014,0.0142,0.0117,0.0117,0.0116,0,0,0.0113,0.0115,0.0123,0.0126,0.013,0.0132,0.0134,0.0135,0.0139,0.0148,0.0144,0.0147,0.0149,0.0152,0.0153,0.0167,0.0151,0.0164,0.0186,0.0176,0.0178,0.0179,0.0163,0.0163,0.0167,0.0167,0.0167,0,0.0115,0.0128,0.0125,0.0134,0.0142,0.0137,0.0151,0.0153,0.0157,0.0165,0.0157,0.0166,0.016,0.0176,0.018,0.0173,0.0161,0.0177,0.0179,0.0181,0.0182,0.0165,0.0164,0.0168,0.0168,0.0168,0.0168,0,0.013,0.0141,0.0147,0.0161,0.0168,0.0177,0.0182,0.0189,0.0192,0.0196,0.0209,0.0201,0.0209,0.0204,0.0196,0.0205,0.0191,0.0182,0.0174,0.0186,0.0167,0.0166,0.017,0.017,0.0169,0.0169,0,0,0.0136,0.0154,0.0158,0.0173,0.0184,0.0194,0.0211,0.0228,0.0247,0.0243,0.0265,0.0261,0.0256,0.0256,0.0246,0.0235,0.0226,0.0213,0.0212,0.0199,0.0198,0.0185,0.0182,0.0216,0.0216,0.0216,0.018,0,0.0151,0.0177,0.0183,0.0213,0.0228,0.0235,0.0254,0.0268,0.0277,0.0296,0.0288,0.0304,0.0277,0.0284,0.0269,0.024,0.0225,0.0236,0.0186,0.0185,0.0174,0.0182,0.0216,0.0179,0.0178,0.0178,0.0178,0,0.0168,0.0184,0.0215,0.0248,0.0256,0.0276,0.0312,0.0329,0.0348,0.0356,0.0365,0.0358,0.0353,0.0325,0.028,0.0287,0.0247,0.0216,0.0214,0.0194,0.017,0.0165,0.0176,0.0176,0.0176,0.0176,0.0177,0,0.0179,0.021,0.0239,0.0249,0.0281,0.0303,0.0325,0.035,0.0378,0.0399,0.0421,0.0405,0.0408,0.0356,0.0292,0.0287,0.0233,0.0219,0.0169,0.0167,0.0176,0.0175,0.0186,0.0186,0.0186,0.0186,0.0186,0,0.0196,0.0219,0.025,0.0266,0.031,0.0326,0.0376,0.0392,0.043,0.0473,0.0457,0.0479,0.0416,0.0378,0.0308,0.0235,0.0245,0.0176,0.016,0.0188,0.0188,0.0175,0.0174,0.0185,0.0185,0.0185,0.0186,0,0.0204,0.0222,0.0258,0.0299,0.0317,0.035,0.0413,0.0451,0.0479,0.0534,0.0547,0.0538,0.0489,0.0413,0.0327,0.0266,0.019,0.016,0.0194,0.018,0.0126,0.0127,0.0106,0.0106,0.0105,0.0105,0.0104,0,0.021,0.0229,0.0282,0.031,0.0332,0.0385,0.0427,0.0472,0.0518,0.057,0.0599,0.0575,0.0554,0.0424,0.0333,0.0202,0.0179,0.0136,0.0132,0.0133,0.0119,0.0121,0.0123,0.0103,0.0103,0.0103,0.0103,0,0.0221,0.0241,0.0272,0.0329,0.0378,0.0438,0.0502,0.0539,0.0599,0.0623,0.0646,0.0593,0.0537,0.0429,0.0326,0.023,0.0163,0.013,0.013,0.0126,0.0129,0.0116,0.0119,0.0101,0.0101,0.0101,0.0101,0,0.0232,0.0253,0.0296,0.0348,0.041,0.0479,0.0512,0.057,0.0616,0.0671,0.0671,0.0616,0.0584,0.0444,0.0348,0.0253,0.0227,0.0189,0.0186,0.0187,0.0216,0.0231,0.0227,0,0,0,0,0,0.0241,0.0267,0.0313,0.0375,0.0437,0.0478,0.056,0.0592,0.0647,0.0667,0.0674,0.0621,0.05,0.0446,0.0349,0.0326,0.0202,0.0207,0.0153,0.009,0.0092,0.0111,0,0,0,0,0,0,0.0246,0.0287,0.0311,0.039,0.0434,0.0513,0.0568,0.0608,0.062,0.0653,0.0587,0.0578,0.0453,0.0547,0.0339,0.0313,0.0262,0.0156,0.0153,0.0088,0.009,0.0092,0.0113,0,0,0,0,0]}]]